Lid_Strength_Index
-0 -1 -1 2 9 9 11 10 7 8 7 5 4 5 6 5 7 9 1 0 -0 -0 -1 -1 -1 -2 -2 -2 -2 -2 -2 -2 -2 -2 -2 -2 -2 -2 -2 -2 -2 -2 -2 -2 -2 -2 -2 -2 -2
-0 1 1 4 10 13 11 8 9 7 6 5 5 5 6 7 4 4 3 0 -1 -0 -1 -1 -1 -2 -2 -2 -2 -2 -2 -2 -2 -2 -2 -2 -2 -2 -2 -2 -2 -2 -2 -2 -2 -2 -2 -2 -2
-0 1 5 8 10 13 11 7 7 6 5 5 6 5 5 6 4 3 1 -0 -1 -0 -1 -1 -1 -1 -1 -1 -1 -2 -2 -2 -2 -2 -2 -2 -2 -2 -2 -2 -2 -2 -2 -2 -2 -2 -2 -2 -2
5 4 5 10 11 9 8 7 6 6 5 4 5 7 5 3 3 1 0 -0 0 -0 -1 -1 -1 -1 -1 -1 -1 -2 -2 -2 -1 -2 -2 -2 -2 -2 -2 -2 -2 -2 -2 -2 -2 -2 -2 -2 -2
5 6 9 12 11 9 7 6 6 7 6 6 5 8 7 3 1 1 0 0 0 -0 -1 -1 -1 -1 -1 -1 -2 -2 -2 -2 -2 -2 -2 -2 -2 -2 -2 -2 -2 -2 -2 -2 -2 -2 -2 -2 -2
7 7 11 13 11 8 6 5 5 6 6 6 6 7 6 2 2 1 0 0 -0 -0 -1 -1 0 0 -1 -1 -1 -1 -1 -2 -2 -2 -2 -2 -2 -2 -2 -2 -2 -2 -2 -2 -2 -2 -2 -2 -1
7 9 11 10 11 10 7 5 6 6 6 6 5 8 6 4 2 1 0 0 -0 -1 -1 -1 -1 -1 1 0 -0 -1 -1 -1 -2 -2 -2 -2 -2 -2 -3 -2 -2 -2 -2 -2 -2 -2 -2 -1 -1
6 8 11 10 11 10 6 6 5 5 6 4 4 8 8 4 1 1 1 0 0 -0 -0 -1 -1 -1 -1 -1 1 1 -0 -1 -1 -1 -0 -0 -1 -1 -1 -1 -2 -2 -2 -2 -2 -1 -1 -1 -1
6 11 13 11 10 9 7 7 5 4 5 5 4 5 3 2 1 2 2 1 1 1 0 -0 -1 -1 -1 -1 -0 1 1 0 -0 -0 1 1 -1 -1 -1 -0 -1 -2 -2 -2 -1 -1 0 1 1
8 12 12 8 7 8 8 8 6 6 6 6 6 4 3 2 3 3 3 3 2 2 1 -0 -1 -1 -1 -1 -1 -1 -1 -2 -1 -1 -1 -1 -1 -1 -1 0 -0 -1 -1 -2 -1 -0 1 1 1
8 12 8 8 7 8 9 9 8 6 7 5 6 6 4 3 3 4 3 3 2 1 1 0 -0 -1 -1 -1 -1 -1 -1 -1 -2 -2 -1 -1 -1 -1 -1 -1 -1 -1 1 -1 -1 -0 0 1 0
10 8 8 8 7 7 8 8 9 6 5 6 4 4 4 4 4 4 3 3 2 2 1 0 -0 -0 -1 -1 -1 -1 -1 -1 -1 -1 -1 -1 -1 -1 -1 -1 -1 -1 -1 -1 -1 -1 -1 0 0
9 8 7 7 7 7 7 8 9 8 6 5 4 4 4 4 4 3 2 2 2 2 1 0 -0 -0 0 -0 -0 -1 -1 -1 -1 -1 -1 -1 -1 -1 -1 -1 -1 -1 -1 -1 -1 -1 -0 0 0
8 8 8 7 8 7 8 8 9 7 6 5 4 5 4 4 4 3 3 3 2 2 2 0 0 0 -0 -0 -0 -1 -1 -1 -1 -1 -1 -1 -1 -1 -0 -1 -1 -1 -1 -1 -1 -1 -0 -0 -0
7 10 9 9 8 9 7 9 10 8 5 6 6 5 5 4 3 3 3 3 2 2 1 1 0 0 0 -0 -0 -1 -1 -1 -1 -1 -1 -1 -1 -1 -1 -1 -0 -1 -1 -0 -1 -1 -1 -0 -0
10 10 14 10 8 8 9 13 8 8 6 7 6 6 5 5 4 3 2 2 2 2 2 1 0 1 0 -0 -0 -1 -1 -1 -1 -1 -1 -1 -1 -1 -1 -1 -1 -1 -1 -1 -0 -0 -0 -0 1
13 16 14 12 8 9 10 12 9 8 9 7 6 6 6 5 4 3 2 2 2 1 1 1 0 1 0 -0 -1 -1 -1 -1 -1 -1 -1 -1 -1 -1 -1 -1 -1 -1 -1 -0 -0 -0 1 1 1
15 15 14 14 11 10 11 11 9 8 9 9 6 6 6 5 5 3 2 2 1 1 1 1 1 0 0 -0 -0 -1 -1 -1 -1 -1 -1 -1 -0 -0 0 0 -0 -0 -0 0 0 0 -0 0 0
11 13 14 12 10 12 13 11 9 9 8 9 8 8 7 6 7 6 5 3 2 1 1 1 2 2 0 1 1 1 1 0 0 -0 -1 -1 -1 -0 0 0 0 -0 0 0 -0 0 1 1 0
11 13 14 12 10 12 14 14 10 10 9 10 11 9 8 9 8 9 7 6 8 7 6 2 1 2 2 1 1 1 0 0 -0 -0 -1 -1 -1 -1 -0 -0 -0 0 0 0 0 0 1 1 0
11 12 13 13 12 12 13 14 12 10 10 11 11 11 10 9 9 10 11 10 9 10 9 7 5 2 1 1 1 0 -0 0 1 0 0 -0 -1 -1 -0 -0 -0 -0 0 1 0 1 1 2 1
13 10 11 12 13 16 13 17 14 11 14 12 12 11 11 11 11 11 11 12 12 11 10 8 6 4 2 0 1 1 2 2 1 1 0 -0 -1 -0 -0 -0 0 0 0 1 0 0 1 1 2
12 10 11 12 13 14 15 15 16 12 15 13 12 12 12 12 13 13 13 13 13 12 10 9 8 7 6 5 3 1 2 1 0 0 1 0 -0 -0 0 -0 0 0 0 0 0 1 1 1 1
9 11 12 12 14 17 15 16 18 15 13 13 12 13 13 13 13 13 14 13 12 12 11 10 10 10 8 7 6 6 4 3 2 1 1 1 0 0 2 1 -0 -0 0 0 0 0 0 1 1
10 12 18 18 18 18 16 17 16 14 14 13 12 14 14 14 14 14 14 14 14 14 12 11 11 12 10 10 9 8 7 5 5 4 2 1 2 4 5 4 5 5 5 4 4 4 5 5 4
11 12 15 21 20 19 16 18 16 13 13 14 14 14 15 15 15 15 15 15 15 14 14 12 12 11 11 10 11 11 10 9 9 8 8 8 8 8 7 7 6 6 5 5 6 7 6 7 7
12 14 12 16 19 17 17 16 13 12 13 14 14 14 15 16 16 16 15 15 15 15 14 13 13 12 11 9 10 11 11 11 11 10 10 10 10 9 9 8 8 8 8 8 9 9 9 9 9
10 10 15 14 19 20 18 18 16 14 13 14 14 15 15 15 16 16 16 16 15 15 15 14 13 13 12 11 10 10 11 11 11 11 11 12 11 10 10 10 10 9 9 9 9 10 10 11 11
11 12 13 13 15 19 20 18 13 13 13 13 13 14 14 15 15 16 16 16 16 15 15 15 14 13 13 12 12 12 12 12 12 12 12 12 12 11 11 11 11 11 11 11 12 13 13 14 14
10 11 12 15 17 16 16 16 11 12 12 12 13 13 14 14 15 15 16 16 16 16 15 15 15 14 14 13 13 13 14 14 14 14 14 14 14 14 13 13 13 13 13 14 14 15 15 15 15